TimeEST,TemperatureF,Dew PointF,Humidity,Sea Level PressureIn,VisibilityMPH,Wind Direction,Wind SpeedMPH,Gust SpeedMPH,PrecipitationIn,Events,Conditions,WindDirDegrees,DateUTC
12:53 AM,36.0,21.0,55,30.03,10.0,SW,18.4,26.5,N/A,,Overcast,220,2013-01-19 05:53:00
1:53 AM,36.0,21.0,55,30.01,10.0,SW,26.5,35.7,N/A,,Overcast,220,2013-01-19 06:53:00
2:53 AM,37.0,21.9,54,30.01,10.0,SW,23.0,31.1,N/A,,Overcast,220,2013-01-19 07:53:00
3:53 AM,39.0,23.0,53,29.98,10.0,SW,25.3,38.0,N/A,,Overcast,220,2013-01-19 08:53:00
4:53 AM,39.9,23.0,51,29.96,10.0,SW,20.7,35.7,N/A,,Overcast,230,2013-01-19 09:53:00
5:53 AM,39.2,24.8,56,29.91,10.0,SW,25.3,34.5,N/A,,Partly Cloudy,230,2013-01-19 10:53:00
6:53 AM,39.9,24.1,53,29.94,10.0,SW,26.5,38.0,N/A,,Clear,230,2013-01-19 11:53:00
7:06 AM,39.2,24.8,56,29.90,10.0,SW,24.2,38.0,N/A,,Mostly Cloudy,230,2013-01-19 12:06:00
7:53 AM,39.9,25.0,55,29.95,10.0,SW,24.2,34.5,N/A,,Mostly Cloudy,230,2013-01-19 12:53:00
8:53 AM,41.0,25.0,53,29.96,10.0,WSW,21.9,38.0,N/A,,Mostly Cloudy,240,2013-01-19 13:53:00
9:53 AM,41.0,26.1,55,29.96,10.0,WSW,20.7,39.1,N/A,,Mostly Cloudy,240,2013-01-19 14:53:00
10:53 AM,41.0,26.1,55,29.98,10.0,WSW,28.8,42.6,N/A,,Mostly Cloudy,240,2013-01-19 15:53:00
11:53 AM,41.0,27.0,57,29.96,10.0,SW,27.6,39.1,N/A,,Mostly Cloudy,230,2013-01-19 16:53:00
12:53 PM,42.1,28.0,58,29.92,10.0,WSW,23.0,41.4,N/A,,Mostly Cloudy,240,2013-01-19 17:53:00
1:53 PM,42.1,28.0,58,29.90,10.0,WSW,23.0,34.5,N/A,,Overcast,240,2013-01-19 18:53:00
2:53 PM,43.0,28.0,56,29.87,10.0,SW,27.6,35.7,N/A,,Mostly Cloudy,230,2013-01-19 19:53:00
3:53 PM,43.0,27.0,53,29.84,10.0,SW,13.8,24.2,N/A,,Overcast,220,2013-01-19 20:53:00
4:53 PM,43.0,27.0,53,29.80,10.0,SSW,13.8,-,N/A,,Overcast,210,2013-01-19 21:53:00
5:53 PM,42.1,27.0,55,29.77,10.0,SSW,11.5,-,N/A,,Mostly Cloudy,210,2013-01-19 22:53:00
6:53 PM,41.0,28.0,60,29.74,10.0,SW,12.7,-,N/A,,Overcast,220,2013-01-19 23:53:00
7:53 PM,41.0,28.9,62,29.73,10.0,SW,10.4,-,N/A,,Overcast,220,2013-01-20 00:53:00
8:53 PM,44.1,28.9,55,29.70,10.0,SW,18.4,26.5,N/A,,Overcast,230,2013-01-20 01:53:00
9:53 PM,46.9,25.0,42,29.66,10.0,SW,23.0,36.8,N/A,,Overcast,220,2013-01-20 02:53:00
10:53 PM,46.0,25.0,44,29.62,10.0,SSW,20.7,32.2,N/A,,Overcast,210,2013-01-20 03:53:00
11:53 PM,46.0,26.1,46,29.57,10.0,SW,24.2,38.0,N/A,,Overcast,220,2013-01-20 04:53:00